DW8102 Weather Reports


Display with metric or nautical units.
time (UTC)temp
F
wind
direction
speed
MPH
gust
MPH
rain 1hr
in
rain 24hr
in
rain mn
in
humidity
%
barometer
mb
20260904133007 61 53 0.0 1.0 0.00 0.00 0.00 72 996.6
20260904131506 62 41 0.0 0.0 0.00 0.00 0.00 72 996.8
20260904130004 62 41 0.0 1.0 0.00 0.00 0.00 72 996.9
20260904124502 62 41 0.0 0.0 0.00 0.00 0.00 72 997.1
20260904123001 61 85 0.0 1.0 0.00 0.00 0.00 70 997.2
20260904121600 61 123 0.0 0.0 0.00 0.00 0.00 73 997.3
20260904120105 62 128 0.0 0.0 0.00 0.00 0.00 72 997.5
20260904114553 62 128 0.0 0.0 0.00 0.00 0.00 67 997.6
20260904113055 63 123 0.0 0.0 0.00 0.00 0.00 67 997.8
20260904111600 62 70 0.0 2.0 0.00 0.00 0.00 68 997.9
20260904110051 61 341 0.0 0.0 0.00 0.00 0.00 75 998.1
20260904104555 60 345 0.0 1.0 0.00 0.00 0.00 75 998.2
20260904103047 60 360 0.0 2.0 0.00 0.00 0.00 77 998.3
20260904101548 60 340 0.0 1.0 0.00 0.00 0.00 77 998.4
20260904100045 59 354 0.0 0.0 0.00 0.00 0.00 79 998.6
20260904094549 59 349 0.0 1.0 0.00 0.00 0.00 81 998.7
20260904093042 58 352 0.0 0.0 0.00 0.00 0.00 81 998.8
20260904091540 58 348 0.0 0.0 0.00 0.00 0.00 82 999.0
20260904090039 57 348 0.0 0.0 0.00 0.00 0.00 82 999.0
20260904084539 57 281 0.0 0.0 0.00 0.00 0.00 83 998.9
20260904083037 57 281 0.0 0.0 0.00 0.00 0.00 83 999.2
20260904081536 57 276 0.0 1.0 0.00 0.00 0.00 84 999.2
20260904080039 56 266 0.0 1.0 0.00 0.00 0.00 85 999.3
20260904074558 56 278 0.0 2.0 0.00 0.00 0.00 85 999.4
20260904073046 56 264 0.0 1.0 0.00 0.00 0.00 87 999.4
20260904071539 54 211 0.0 0.0 0.00 0.00 0.00 88 999.4
20260904070034 54 217 0.0 0.0 0.00 0.00 0.00 89 999.5
20260904064534 53 217 0.0 0.0 0.00 0.00 0.00 91 999.6
20260904063034 53 217 0.0 0.0 0.00 0.00 0.00 93 999.7
20260904061532 52 201 0.0 0.0 0.00 0.00 0.00 94 999.9
20260904060030 52 203 0.0 0.0 0.00 0.00 0.00 95 999.8
20260904054529 50 200 0.0 0.0 0.00 0.00 0.00 95 999.8
20260904053036 49 200 0.0 0.0 0.00 0.00 0.00 95 999.9
20260904051535 0 0.0 0.0 0.00 0.00 0.00 999.9
20260904050032 0 0.0 0.0 0.00 0.00 0.00 1000.0
20260904044519 0 0.0 0.0 0.00 0.00 0.00 1000.0
20260904043015 0 0.0 0.0 0.00 0.00 0.00 1000.0
20260904041511 0 0.0 0.0 0.00 0.00 0.00 1000.0
20260904040007 0 0.0 0.0 0.00 0.00 0.00 1000.1
20260904034505 45 200 0.0 0.0 0.00 0.00 0.00 94 1000.4
20260904033006 45 200 0.0 0.0 0.00 0.00 0.00 94 1000.5
20260904031505 45 200 0.0 0.0 0.00 0.00 0.00 94 1000.4
20260904030004 44 200 0.0 0.0 0.00 0.00 0.00 93 1000.3
20260904024504 44 200 0.0 0.0 0.00 0.00 0.00 93 1000.3
20260904023004 44 200 0.0 0.0 0.00 0.00 0.00 93 1000.5
20260904021501 44 200 0.0 0.0 0.00 0.00 0.00 92 1000.7
20260904020100 45 200 0.0 0.0 0.00 0.00 0.00 92 1000.7
20260904014642 45 200 0.0 0.0 0.00 0.00 0.00 92 1000.8
20260904013100 45 205 0.0 0.0 0.00 0.00 0.00 92 1000.9
20260904011555 45 205 0.0 0.0 0.00 0.00 0.00 92 1001.0
20260904010053 45 206 0.0 0.0 0.00 0.00 0.00 91 1001.2
20260904004549 45 205 0.0 0.0 0.00 0.00 0.00 90 1001.4
20260904003050 46 205 0.0 0.0 0.00 0.00 0.00 90 1001.5
20260904001547 46 206 0.0 0.0 0.00 0.00 0.00 90 1001.6
20260904000126 46 205 0.0 0.0 0.00 0.00 0.00 89 1001.7
20260903234543 46 205 0.0 0.0 0.00 0.00 0.00 88 1001.8
20260903233040 47 205 0.0 0.0 0.00 0.00 0.00 86 1001.9
20260903231537 48 205 0.0 0.0 0.00 0.00 0.00 85 1002.0
20260903230035 48 205 0.0 0.0 0.00 0.00 0.00 82 1002.1
20260903224543 49 205 0.0 0.0 0.00 0.00 0.00 81 1002.3
20260903223033 50 206 0.0 0.0 0.00 0.00 0.00 80 1002.3
20260903221527 50 205 0.0 0.0 0.00 0.00 0.00 81 1002.5
20260903220026 50 205 0.0 0.0 0.00 0.00 0.00 78 1002.5
20260903214533 51 205 0.0 0.0 0.00 0.00 0.00 79 1002.6
20260903213033 51 173 0.0 0.0 0.00 0.00 0.00 77 1002.6
20260903211519 52 142 0.0 0.0 0.00 0.00 0.00 78 1002.7
20260903210019 53 142 0.0 0.0 0.00 0.00 0.00 74 1002.6
20260903204515 53 142 0.0 0.0 0.00 0.00 0.00 71 1002.7
20260903203015 53 142 0.0 0.0 0.00 0.00 0.00 71 1002.7
20260903201513 53 184 0.0 0.0 0.00 0.00 0.00 73 1002.8
20260903200011 53 184 0.0 0.0 0.00 0.00 0.00 73 1003.0
20260903194510 53 183 0.0 0.0 0.00 0.00 0.00 71 1003.2
20260903193007 54 184 0.0 0.0 0.00 0.00 0.00 70 1003.3
20260903191514 55 183 0.0 0.0 0.00 0.00 0.00 67 1003.3
20260903190106 57 183 0.0 0.0 0.00 0.00 0.00 67 1003.4
20260903184557 57 183 0.0 0.0 0.00 0.00 0.00 66 1003.5
20260903183055 58 195 0.0 0.0 0.00 0.00 0.00 63 1003.6
20260903181552 59 194 0.0 0.0 0.00 0.00 0.00 62 1003.7
20260903180052 60 194 0.0 1.0 0.00 0.00 0.00 60 1003.7
20260903174543 61 195 0.0 3.0 0.00 0.00 0.00 59 1003.8
20260903173047 62 191 0.0 4.0 0.00 0.00 0.00 57 1003.8
20260903171541 63 179 1.0 3.0 0.00 0.00 0.00 56 1003.9
20260903170051 64 155 1.0 9.0 0.00 0.00 0.00 54 1004.0
20260903164538 65 199 1.0 6.0 0.00 0.00 0.00 55 1003.9
20260903163039 65 195 1.0 5.0 0.00 0.00 0.00 56 1003.9
20260903161532 65 194 2.0 7.0 0.00 0.00 0.00 57 1003.9
20260903160031 65 186 3.0 9.0 0.00 0.00 0.00 56 1003.9
20260903154530 65 257 3.0 9.0 0.00 0.00 0.00 55 1004.0
20260903153029 65 152 1.0 10.0 0.00 0.00 0.00 56 1004.0
20260903151527 65 195 3.0 8.0 0.00 0.00 0.00 55 1004.1
20260903150037 65 136 2.0 9.0 0.00 0.00 0.00 56 1004.2
20260903144525 65 214 3.0 9.0 0.00 0.00 0.00 55 1004.2
20260903143028 65 266 3.0 7.0 0.00 0.00 0.00 56 1004.3
20260903141526 66 249 3.0 9.0 0.00 0.00 0.00 56 1004.3
20260903140025 66 240 3.0 8.0 0.00 0.00 0.00 52 1004.4
20260903134523 66 153 2.0 7.0 0.00 0.00 0.00 53 1004.4